[[{"header":{"parameterUnit":"m.s-1","parameterCategory":1,"la1":30.2991,"la2":30.254,"lo1":-89.0895,"lo2":-89.0444,"dy":0.0017,"dx":0.0017,"nx":28,"ny":28,"refTime":"2024-06-01T03:00:00:Z","depth":0,"parameterNumber":2,"parameterNumberName":"U-component_of_WINDS"},"data":[0,0,0,0,0,0,0,0,0,0,0,0,0,0,0,0,0,0,0,0,0,0,0,0,0,0,0,0,0,0,0,0,0,0,0,0,0,0,0,0,0,0,0,0,0,0,0,0,0,0,0,0,0,0,0,0,0,0,1.8765,1.8766,0,1.8854,1.8855,1.8856,1.8861,1.8859,1.8858,1.8857,1.8951,1.8954,1.8958,0,0,0,0,0,0,0,0,0,0,0,0,0,1.86,1.8603,1.8765,1.8766,1.8767,1.8854,1.8855,1.8856,1.8861,1.8859,1.8858,1.8857,1.895,1.8954,1.8958,0,0,0,0,0,0,0,0,0,0,0,0,0,1.8679,1.8604,1.8764,1.8779,1.8782,1.8854,1.8855,1.8857,1.8861,1.8859,1.8858,1.8856,1.8948,1.8953,1.8958,1.9022,0,0,1.8974,1.8977,0,0,0,0,0,0,0,0,1.8674,1.8685,1.8776,1.8779,1.8781,1.8844,1.8831,1.8912,1.8861,1.8831,1.8857,1.8856,1.8917,1.8924,1.8945,1.9026,1.903,1.8975,1.8978,1.898,1.8982,0,0,0,0,0,0,0,1.8669,1.8681,1.88,1.8777,1.8781,1.8783,1.8792,1.8847,1.8882,1.8833,1.8834,1.8844,1.8918,1.894,1.8947,1.9032,1.8975,1.8979,1.8982,1.8984,1.9171,1.9173,0,0,0,0,0,0,1.866,1.8676,1.8797,1.8803,1.8723,1.8787,1.8797,1.8826,1.8881,1.8888,1.8846,1.8844,1.8932,1.8941,1.895,1.9029,1.898,1.8985,1.8988,1.917,1.9172,1.9174,0,0,0,0,0,0,1.8656,1.8671,1.8794,1.874,1.8755,1.8791,1.8823,1.8828,1.885,1.889,1.8897,1.8861,1.8931,1.8943,1.9004,1.9033,1.8987,1.8992,1.9167,1.917,1.9173,1.9187,0,0,0,0,0,0,1.8652,1.8669,1.8693,1.874,1.8758,1.8845,1.8825,1.8831,1.8859,1.8858,1.8907,1.8913,1.893,1.8997,1.9009,1.9039,1.8996,1.9165,1.9169,1.9172,1.9184,1.919,1.9195,0,0,0,0,0,1.8646,1.8694,1.8694,1.8709,1.8789,1.8847,1.8857,1.8876,1.8861,1.8886,1.8912,1.8912,1.9027,1.9003,1.9017,1.9049,1.9163,1.9168,1.9172,1.9182,1.9189,1.9195,0,0,0,0,0,0,1.8649,1.87,1.8701,1.8766,1.8802,1.8848,1.8879,1.8882,1.8924,1.8921,1.8943,1.8954,1.9015,1.9038,1.901,1.9114,1.9094,1.9101,1.9097,1.9104,1.9109,1.9102,1.9,0,0,0,0,0,1.8658,1.87,1.8742,1.8795,1.8813,1.8843,1.8869,1.888,1.8919,1.8934,1.8965,1.9003,1.9048,1.9077,1.912,1.9188,1.9199,1.9217,1.9222,1.9226,1.9232,1.9271,1.928,1.9188,1.9188,1.9187,0,0,1.8675,1.8708,1.8734,1.8797,1.8826,1.887,1.8856,1.8903,1.8937,1.8942,1.9001,1.9025,1.9069,1.9134,1.9164,1.9155,1.926,1.9231,1.9234,1.9238,1.9276,1.9285,1.9293,1.919,1.919,1.9189,0,0,1.873,1.8759,1.8806,1.8836,1.8881,1.8901,1.8912,1.8958,1.8974,1.9034,1.9039,1.9079,1.9156,1.9188,1.9214,1.9282,1.9284,1.9295,1.9323,1.9361,1.9368,1.9375,1.94,1.9409,1.9301,1.9301,1.9301,0,1.8746,1.8813,1.8831,1.8878,1.8906,1.8913,1.8962,1.899,1.9047,1.9067,1.9056,1.9153,1.9183,1.9256,1.9272,1.9293,1.9308,1.929,1.9365,1.9372,1.9379,1.9403,1.9412,1.9302,1.9302,1.9302,1.9302,0,1.8831,1.8877,1.891,1.8965,1.8997,1.9045,1.9071,1.9102,1.911,1.9131,1.9194,1.923,1.9281,1.9299,1.9308,1.9374,1.9368,1.9361,1.9341,1.9388,1.9412,1.9421,1.9304,1.9304,1.9303,1.9303,0,0,1.889,1.8955,1.8967,1.8992,1.9043,1.9079,1.9128,1.9178,1.9204,1.9243,1.9286,1.9351,1.9345,1.9375,1.9387,1.942,1.9473,1.941,1.9411,1.9421,1.955,1.9555,1.9566,1.9475,1.9477,1.9478,1.9547,0,1.8951,1.9038,1.9056,1.9131,1.9175,1.9182,1.9225,1.9261,1.9283,1.9324,1.9347,1.9394,1.9382,1.94,1.9433,1.946,1.95,1.9455,1.9516,1.9518,1.9505,1.9578,1.9584,1.9646,1.9556,1.9557,1.9559,0,1.9034,1.9075,1.9155,1.92,1.9219,1.9257,1.9306,1.9344,1.9386,1.9399,1.9433,1.9442,1.9494,1.9472,1.9545,1.9514,1.954,1.9557,1.956,1.9567,1.9541,1.9588,1.9667,1.9677,1.9573,1.9572,1.9571,0,1.907,1.9146,1.9203,1.9225,1.9279,1.9306,1.933,1.937,1.94,1.9442,1.9462,1.9509,1.9536,1.9573,1.9596,1.9577,1.9668,1.9647,1.9681,1.9681,1.9701,1.9699,1.9786,1.9716,1.9716,1.9715,1.9715,0,1.9137,1.9185,1.9221,1.9256,1.9312,1.9333,1.9387,1.9411,1.9447,1.9488,1.9497,1.9536,1.9563,1.9605,1.9623,1.9682,1.9694,1.9707,1.9711,1.9706,1.9705,1.9724,1.9721,1.9718,1.9717,1.9717,1.9716,0,1.9187,1.9212,1.9276,1.9322,1.9335,1.9374,1.9415,1.945,1.9472,1.9524,1.9537,1.9572,1.9623,1.9649,1.9712,1.9724,1.9791,1.9792,1.9777,1.9779,1.9812,1.9809,1.9915,1.9931,1.9849,1.985,1.9851,0,1.9228,1.9265,1.9316,1.9345,1.9369,1.9414,1.9445,1.9467,1.9498,1.9549,1.9579,1.963,1.9673,1.9754,1.9785,1.9834,1.9837,1.9871,1.9845,1.9839,1.9839,1.9837,1.9841,1.9876,1.9876,1.9877,1.9878,0,1.9298,1.9309,1.9352,1.94,1.9436,1.9475,1.9513,1.9536,1.9565,1.96,1.9652,1.9685,1.975,1.9801,1.9853,1.9878,1.9884,1.9886,1.9896,1.9892,1.9882,1.9889,1.979,1.9883,1.9883,1.9882,1.9882,1.9882,1.9346,1.938,1.9422,1.947,1.9501,1.9537,1.9573,1.96,1.9644,1.9698,1.9709,1.9765,1.9807,1.9876,1.9904,1.9948,1.9941,1.9956,1.996,1.9964,1.9966,1.9875,1.9957,1.9957,1.9957,1.9957,1.9957,0,1.9418,1.9445,1.9489,1.9543,1.9581,1.9582,1.9625,1.9657,1.9706,1.9744,1.9786,1.9846,1.9897,1.9932,1.9983,2.0012,2.0016,2.0025,2.0024,2.003,1.9969,1.9955,2.0021,2.0021,2.0021,2.0021,2.0021,2.0021,1.946,1.9519,1.9535,1.961,1.9637,1.9691,1.9716,1.975,1.9781,1.9848,1.989,1.9912,1.995,2.0004,2.0051,2.006,2.0079,2.0088,2.0098,2.0041,2.0034,2.0027,2.0014,2.0092,2.0092,2.0155,2.0156,2.0156]},{"header":{"parameterUnit":"m.s-1","parameterCategory":1,"la1":30.2991,"la2":30.254,"lo1":-89.0895,"lo2":-89.0444,"dy":0.0017,"dx":0.0017,"nx":28,"ny":28,"refTime":"2024-06-01T03:00:00:Z","depth":0,"parameterNumber":3,"parameterNumberName":"V-component_of_WINDS"},"data":[0,0,0,0,0,0,0,0,0,0,0,0,0,0,0,0,0,0,0,0,0,0,0,0,0,0,0,0,0,0,0,0,0,0,0,0,0,0,0,0,0,0,0,0,0,0,0,0,0,0,0,0,0,0,0,0,0,0,6.5329,6.5331,0,6.5501,6.5503,6.5505,6.5547,6.5546,6.5545,6.5544,6.5712,6.5717,6.5723,0,0,0,0,0,0,0,0,0,0,0,0,0,6.5025,6.5031,6.5328,6.5331,6.5333,6.5501,6.5503,6.5506,6.5547,6.5546,6.5545,6.5543,6.571,6.5717,6.5723,0,0,0,0,0,0,0,0,0,0,0,0,0,6.5173,6.5033,6.5328,6.5374,6.538,6.5501,6.5503,6.5506,6.5548,6.5546,6.5544,6.5543,6.5708,6.5716,6.5724,6.5809,0,0,6.5749,6.5753,0,0,0,0,0,0,0,0,6.5165,6.5184,6.5365,6.5371,6.5378,6.5501,6.5458,6.5607,6.5548,6.5484,6.5544,6.5542,6.5643,6.5656,6.5692,6.5817,6.5824,6.575,6.5755,6.5759,6.5761,0,0,0,0,0,0,0,6.5154,6.5177,6.5397,6.5368,6.5375,6.5383,6.5402,6.5487,6.557,6.5489,6.5493,6.5513,6.5646,6.5684,6.5696,6.5826,6.575,6.5757,6.5762,6.5766,6.6028,6.6029,0,0,0,0,0,0,6.5137,6.5168,6.5391,6.5402,6.5265,6.539,6.5411,6.5463,6.5569,6.5584,6.5514,6.5514,6.5671,6.5686,6.5702,6.5808,6.5759,6.5766,6.5771,6.6026,6.6028,6.603,0,0,0,0,0,0,6.5131,6.5157,6.5384,6.5286,6.5316,6.5397,6.5455,6.5467,6.5506,6.5589,6.5603,6.5539,6.567,6.5691,6.5782,6.5814,6.577,6.5778,6.6023,6.6026,6.6029,6.602,0,0,0,0,0,0,6.5122,6.5154,6.519,6.5287,6.5321,6.5464,6.5457,6.5472,6.5521,6.5523,6.5615,6.5629,6.567,6.577,6.579,6.5825,6.5784,6.6021,6.6025,6.6028,6.6018,6.6022,6.6026,0,0,0,0,0,6.5111,6.5178,6.5191,6.5218,6.5367,6.5466,6.5485,6.5534,6.5523,6.5558,6.5611,6.5626,6.5807,6.5779,6.5803,6.584,6.6019,6.6023,6.6028,6.6016,6.6021,6.6026,0,0,0,0,0,0,6.508,6.5192,6.5207,6.5309,6.5378,6.5473,6.5518,6.5538,6.561,6.5608,6.5663,6.5683,6.5771,6.5814,6.5781,6.5926,6.5913,6.5922,6.5895,6.5901,6.5905,6.5893,6.5791,0,0,0,0,0,6.5085,6.5159,6.5252,6.5332,6.5366,6.5436,6.5481,6.5513,6.5585,6.5614,6.5674,6.5741,6.5813,6.5859,6.5931,6.6024,6.6044,6.6061,6.6065,6.6068,6.6075,6.6127,6.6136,6.6045,6.6045,6.6045,0,0,6.5096,6.5166,6.5209,6.5328,6.5385,6.5457,6.546,6.5537,6.5591,6.5625,6.5716,6.5762,6.584,6.5933,6.5977,6.5972,6.6105,6.6074,6.6076,6.6082,6.6132,6.6141,6.6149,6.6048,6.6047,6.6047,0,0,6.5153,6.5215,6.5288,6.5346,6.5434,6.548,6.5497,6.559,6.5622,6.5715,6.5742,6.5805,6.5929,6.5983,6.6027,6.6105,6.612,6.6126,6.6147,6.6197,6.6204,6.6211,6.6238,6.6247,6.6133,6.6133,6.6133,0,6.5155,6.5269,6.5322,6.5399,6.5449,6.5486,6.5559,6.5612,6.5716,6.5749,6.5743,6.5899,6.5954,6.606,6.6079,6.6114,6.6133,6.6116,6.6199,6.6207,6.6213,6.624,6.625,6.6133,6.6133,6.6133,6.6133,0,6.5265,6.5344,6.5392,6.5496,6.5551,6.5625,6.5688,6.5737,6.5764,6.5809,6.5902,6.597,6.6056,6.6083,6.6109,6.6192,6.6186,6.6189,6.6176,6.6221,6.6247,6.6257,6.6133,6.6133,6.6133,6.6133,0,0,6.5308,6.5441,6.5458,6.5505,6.5605,6.5665,6.5739,6.5825,6.5866,6.5936,6.5999,6.6103,6.6106,6.6156,6.6188,6.6231,6.6287,6.6229,6.6231,6.6237,6.6382,6.638,6.6391,6.6299,6.6301,6.6302,6.6376,0,6.5377,6.5515,6.5566,6.5678,6.5749,6.5785,6.585,6.5916,6.596,6.6025,6.6073,6.6146,6.6145,6.6175,6.622,6.6271,6.6317,6.6267,6.6355,6.6358,6.6335,6.6404,6.6402,6.6468,6.6386,6.6388,6.6389,0,6.5476,6.5551,6.5671,6.5762,6.5794,6.5851,6.5934,6.5997,6.6071,6.61,6.6156,6.6185,6.6262,6.6244,6.6349,6.6314,6.6353,6.6383,6.6387,6.6397,6.6376,6.6415,6.649,6.6499,6.6405,6.6404,6.6403,0,6.5494,6.5625,6.5714,6.5753,6.5861,6.59,6.5946,6.602,6.6068,6.6139,6.6171,6.6249,6.6291,6.635,6.6398,6.6381,6.6498,6.6485,6.6523,6.6521,6.6546,6.6543,6.6627,6.6571,6.6571,6.657,6.657,0,6.5565,6.5637,6.5723,6.5778,6.5859,6.5915,6.5992,6.604,6.6105,6.6167,6.6201,6.6258,6.6319,6.6384,6.6422,6.6502,6.6521,6.6545,6.6554,6.6542,6.6539,6.6568,6.6564,6.6573,6.6573,6.6572,6.6572,0,6.5599,6.566,6.5759,6.5854,6.5879,6.5934,6.6014,6.6066,6.6112,6.6191,6.6212,6.6283,6.6361,6.6415,6.6514,6.6539,6.6626,6.6635,6.6602,6.6606,6.6641,6.6637,6.6746,6.6763,6.6695,6.6696,6.6696,0,6.5641,6.5698,6.5799,6.5845,6.5892,6.5965,6.6015,6.6071,6.6121,6.6211,6.6252,6.6333,6.64,6.6522,6.658,6.6655,6.6666,6.6699,6.6677,6.6663,6.6666,6.6662,6.6668,6.6702,6.6703,6.6703,6.6703,0,6.5708,6.5736,6.5809,6.5892,6.5952,6.602,6.6087,6.6122,6.6189,6.6244,6.6325,6.6377,6.6479,6.6558,6.6639,6.6683,6.6704,6.671,6.6723,6.6711,6.6689,6.6701,6.661,6.6707,6.6707,6.6706,6.6706,6.6706,6.5747,6.5799,6.5879,6.5959,6.6016,6.6078,6.6133,6.6187,6.6256,6.6346,6.6374,6.6458,6.6529,6.6641,6.6686,6.6751,6.6749,6.6767,6.6772,6.6775,6.6775,6.6679,6.6766,6.6766,6.6766,6.6766,6.6766,0,6.5816,6.5869,6.5942,6.6037,6.6099,6.6117,6.6192,6.6242,6.6317,6.6383,6.645,6.6542,6.6619,6.6684,6.6762,6.6801,6.6812,6.682,6.6817,6.6827,6.6773,6.6754,6.6809,6.6809,6.6809,6.6809,6.6809,6.6809,6.5859,6.5948,6.5985,6.6101,6.6153,6.6238,6.628,6.6337,6.639,6.6493,6.6558,6.6601,6.6667,6.675,6.682,6.6837,6.6864,6.6869,6.6888,6.6836,6.6831,6.6826,6.6809,6.6875,6.6875,6.6937,6.6938,6.6938]}]]